Location: Arbon
(43.0005°N, 0.7472°E)
Time: 11:13:18
(UTC+00:00)

Cosmos 2285 Rocket - Pass Details

Date: 22 April 2026
Orbit: 971 x 997 km, 74.0° (Epoch: 15 May)

Event Time Altitude Azimuth Distance (km) Brightness Sun altitude
Rises 20:09:57 0° 187° (S) 3,685 6.8 -14.4°
Reaches altitude 10° 20:12:31 10° 185° (S) 2,737 6.1 -14.8°
Maximum altitude 20:18:46 63° 105° (ESE) 1,089 4.0 -15.7°
Drops below altitude 10° 20:25:00 10° 26° (NNE) 2,735 6.5 -16.7°
Sets 20:27:34 0° 24° (NNE) 3,684 7.2 -17.1°
